User: anonymous   Login
Location: Theydon Bois
(51.6750°N, 0.1050°E)
Time: 20:57:03
(UTC+01:00)
Language:

CZ-2D R/B - Orbit

View from above orbital plane
View from above orbital plane
View from above satellite
View from above satellite

Ground track
Ground track

The orbit data is extracted from the following two-line orbital elements,

1 28738U 05024B   17292.94705138 +.00000485 +00000-0 +32533-4 0  9994
2 28738 097.4848 327.3036 0010734 299.1725 060.8431 15.11309932674636
Epoch (UTC): 19 October 2017 22:43:45
Eccentricity: 0.0010734
inclination: 97.4848°
perigee height: 525 km
apogee height: 539 km
right ascension of ascending node: 327.3036°
argument of perigee: 299.1725°
revolutions per day: 15.11309932
mean anomaly at epoch: 60.8431°
orbit number at epoch: 67463

The dashed part of the orbit path shows where the satellite is in the earth's shadow,  

DLR